TimeCDT,TemperatureF,Dew PointF,Humidity,Sea Level PressureIn,VisibilityMPH,Wind Direction,Wind SpeedMPH,Gust SpeedMPH,PrecipitationIn,Events,Conditions,WindDirDegrees,DateUTC
12:00 AM,46.4,42.8,87,29.94,10.0,North,28.8,41.4,N/A,,Overcast,360,2013-03-24 05:00:00
12:44 AM,44.6,37.4,76,29.97,10.0,North,28.8,40.3,N/A,,Overcast,350,2013-03-24 05:44:00
12:52 AM,43.0,36.0,76,29.96,10.0,North,26.5,36.8,N/A,,Overcast,350,2013-03-24 05:52:00
1:52 AM,39.9,30.0,68,30.02,10.0,North,26.5,36.8,N/A,,Scattered Clouds,350,2013-03-24 06:52:00
2:52 AM,37.0,26.1,65,30.04,10.0,NNW,23.0,33.4,N/A,,Clear,340,2013-03-24 07:52:00
3:52 AM,35.1,24.1,64,30.05,10.0,NNW,25.3,34.5,N/A,,Clear,330,2013-03-24 08:52:00
4:52 AM,33.1,23.0,66,30.06,10.0,NNW,18.4,-,N/A,,Clear,330,2013-03-24 09:52:00
5:52 AM,32.0,21.9,66,30.10,10.0,NNW,19.6,-,N/A,,Clear,330,2013-03-24 10:52:00
6:52 AM,30.9,21.9,69,30.14,10.0,NW,18.4,-,N/A,,Clear,320,2013-03-24 11:52:00
7:52 AM,30.0,21.0,69,30.17,10.0,NW,16.1,26.5,N/A,,Clear,320,2013-03-24 12:52:00
8:52 AM,32.0,21.0,64,30.19,10.0,NNW,21.9,26.5,N/A,,Clear,330,2013-03-24 13:52:00
9:52 AM,35.1,21.9,59,30.21,10.0,NNW,21.9,27.6,N/A,,Clear,330,2013-03-24 14:52:00
10:52 AM,37.9,21.9,53,30.22,10.0,NNW,19.6,27.6,N/A,,Clear,330,2013-03-24 15:52:00
11:52 AM,41.0,21.9,47,30.22,10.0,NNW,17.3,-,N/A,,Clear,340,2013-03-24 16:52:00
12:52 PM,44.1,21.9,42,30.20,10.0,North,15.0,25.3,N/A,,Clear,350,2013-03-24 17:52:00
1:52 PM,46.0,21.0,37,30.19,10.0,North,16.1,23.0,N/A,,Clear,360,2013-03-24 18:52:00
2:52 PM,48.9,21.0,33,30.16,10.0,NNW,18.4,23.0,N/A,,Clear,340,2013-03-24 19:52:00
3:52 PM,50.0,19.9,31,30.12,10.0,North,9.2,18.4,N/A,,Clear,350,2013-03-24 20:52:00
4:52 PM,51.1,19.0,28,30.09,10.0,North,9.2,17.3,N/A,,Clear,350,2013-03-24 21:52:00
5:52 PM,51.1,14.0,23,30.08,10.0,North,16.1,20.7,N/A,,Clear,360,2013-03-24 22:52:00
6:52 PM,50.0,12.0,22,30.08,10.0,North,13.8,21.9,N/A,,Clear,10,2013-03-24 23:52:00
7:52 PM,46.9,12.0,24,30.10,10.0,North,11.5,-,N/A,,Clear,10,2013-03-25 00:52:00
8:52 PM,43.0,12.9,30,30.13,10.0,NNE,6.9,-,N/A,,Clear,30,2013-03-25 01:52:00
9:52 PM,41.0,12.9,32,30.15,10.0,NE,5.8,-,N/A,,Clear,50,2013-03-25 02:52:00
10:52 PM,39.0,15.1,38,30.17,10.0,ENE,5.8,-,N/A,,Clear,70,2013-03-25 03:52:00
11:52 PM,37.0,14.0,39,30.19,10.0,ENE,6.9,-,N/A,,Clear,60,2013-03-25 04:52:00